Location: *
(43.9905°S, 176.4941°W)
Time: 06:58:27
(UTC+00:00)

Cosmos 2369 Rocket - Pass Details

Date: 08 December 2019
Orbit: 828 x 853 km, 71.0° (Epoch: 27 January)

Event Time Altitude Azimuth Distance (km) Brightness Sun altitude
Exits shadow 11:35:27 - 289° (WNW) 2,590 4.5 -23.3°
Reaches altitude 10° 11:35:45 10° 287° (WNW) 2,499 4.5 -23.3°
Maximum altitude 11:40:30 26° 231° (SW) 1,642 4.0 -23.3°
Drops below altitude 10° 11:45:18 10° 175° (S) 2,518 5.8 -23.3°
Sets 11:48:13 0° 162° (SSE) 3,458 6.7 -23.3°
